POEM 4

导读

POEM-4(PSLV轨道实验舱)是印度空间研究组织(ISRO)于2024年12月30日通过PSLV-C60火箭发射的轨道实验平台,作为印度空间对接试验SpaDeX任务的配套载体,运行于近地轨道。它共搭载24个来自印度科研机构和非政府组织的有效载荷,所有载荷均按预期运行,产出了宝贵的科研数据。在完成对接分离测试任务后,POEM-4于2025年4月受控再入大气层,最终溅落印度洋,标志着印度首次太空对接任务圆满结束,为印度后续载人登月、空间站建设奠定了技术基础。

Basic Information
目录编号:
62461
目录名称:
POEM 4
国际标识:
2024-253C
轨道中心:
EARTH
卫星名称:
POEM 4
卫星全名:
POEM 4
卫星状态:
已陨落 最后检测时间 2025-04-04
发射日期:
2024-12-30 UTC
国别 :
印度 (IN)
星等 :
--
Orbit Information
数据来源 国际轨道数据
星历时间: 2025-04-03T22:25:25+0800
轨道信息已过期519天
半长轴: 6548.059km
偏心率: 0.0005929
轨道倾角: 55.199°
近地点辐角 311.945°
升交点赤经 162.525°
平近点角 141.162°
近地点: 166.041km
远地点: 173.807km
周期: 87.888分钟
每日圈数: 16.384529
Detailed Information
使用方式:
暂无